Hourly Data Report for November 06, 2012

BAGOTVILLE A
QUEBEC

48°20'00.000" N
71°00'00.000" W
159.10 m
7060400
71727
YBG

Download Data

Hourly Data (November 2012)
Hourly Data Report for November 6, 2012
TIME
LST
Temp Definition
°C
Dew Point Definition
°C
Rel Hum Definition
%
Precip. Amount Definition
mm

Wind Dir Definition
10's deg

Wind Spd Definition
km/h
Visibility Definition
km
Stn Press Definition
kPa
Hmdx Definition


Wind Chill Definition


Weather Definition


00:00 -3.6 -8.9 67   28 13 24.1 99.72   -8 Mostly Cloudy
01:00 -4.4 -7.1 81   26 17 24.1 99.72   -10 Mostly Cloudy
02:00 -5.0 -7.5 83   27 19 24.1 99.75   -11 Mostly Cloudy
03:00 -5.0 -7.5 83   28 19 24.1 99.76   -11 Cloudy
04:00 -5.0 -7.2 85   27 17 19.3 99.79   -11 Snow Showers
05:00 -5.4 -8.0 82   28 17 24.1 99.81   -11 Mostly Cloudy
06:00 -6.1 -7.8 88   27 15 24.1 99.87   -12 Mostly Cloudy
07:00 -6.3 -7.7 90   27 13 24.1 99.92   -12 Mainly Clear
08:00 -4.7 -7.5 81   27 15 32.2 99.95   -10 Mostly Cloudy
09:00 -4.4 -9.3 69   29 19 32.2 99.99   -11 Mostly Cloudy
10:00 -3.6 -9.3 65   28 20 32.2 100.01   -10 Snow Showers
11:00 -2.6 -9.0 61   28 20 24.1 100.02   -9 Snow Showers
12:00 -3.0 -10.0 58   28 22 32.2 100.05   -9 Snow Showers
13:00 -2.9 -8.3 66   27 24 32.2 100.11   -10 Snow Showers
14:00 -2.5 -10.0 56   28 24 40.2 100.13   -9 Mostly Cloudy
15:00 -2.2 -10.0 55   27 13 40.2 100.15   -7 Mainly Clear
16:00 -2.5 -9.6 58   29 11 40.2 100.19   -7 Mainly Clear
17:00 -4.9 -9.6 70   25 9 24.1 100.25   -9 Mainly Clear
18:00 -5.6 -10.1 71   23 9 24.1 100.29   -10 Mainly Clear
19:00 -6.2 -9.4 78   27 6 24.1 100.34   -9 Mainly Clear
20:00 -4.4 -8.2 75   25 9 24.1 100.41   -8 Snow Showers
21:00 -4.2 -8.6 71   24 9 24.1 100.45   -8 Mostly Cloudy
22:00 -4.5 -8.3 75   27 9 24.1 100.46   -8 Mostly Cloudy
23:00 -4.0 -8.4 71   25 9 24.1 100.49   -8 Mostly Cloudy

Notes on Data Quality.

Legend

  • E = Estimated
  • M = Missing
  • NA = Not Available*
  • [empty] = Indicates an unobserved value
Date modified: